User: anonymous   Login
Location: Wilsall
(45.9940°N, 110.6590°W)
Time: 07:45:12
(UTC-06:00)
Language:

GP-B - Orbit

View from above orbital plane
View from above orbital plane
View from above satellite
View from above satellite

Ground track
Ground track

The orbit data is extracted from the following two-line orbital elements,

1 28230U 04014A   16144.51538049  .00000238  00000-0  30393-4 0  9990
2 28230  89.8585 129.1109 0003386  95.3356 264.8253 14.78422482651525
Epoch (UTC): 23 May 2016 12:22:08
Eccentricity: 0.0003386
inclination: 89.8585°
perigee height: 632 km
apogee height: 636 km
right ascension of ascending node: 129.1109°
argument of perigee: 95.3356°
revolutions per day: 14.78422482
mean anomaly at epoch: 264.8253°
orbit number at epoch: 65152

The dashed part of the orbit path shows where the satellite is in the earth's shadow,  

DLR